Location: ??????
(55.2000°N, 38.3000°E)
Time: 01:46:11
(UTC+00:00)

Cosmos 2360 Rocket - Pass Details

Date: 15 November 2025
Orbit: 833 x 843 km, 71.0° (Epoch: 12 December)

Event Time Altitude Azimuth Distance (km) Brightness Sun altitude
Exits shadow 02:11:04 24° 336° (NNW) 1,701 3.6 -23.7°
Drops below altitude 10° 02:15:22 10° 26° (NNE) 2,473 4.9 -23.1°
Sets 02:18:19 0° 40° (NE) 3,408 5.9 -22.6°
